KD0RXN-4 Weather Reports


time (UTC)temp
C
wind
direction
speed
KPH
gust
KPH
rain 1hr
cm
rain 24hr
cm
rain mn
cm
humidity
%
barometer
mb
20260502220521 19 282 0.0 0.0 0.00 0.00 0.00 32 1017.2
20260502220026 19 221 0.0 1.6 0.00 0.00 0.00 32 1017.3
20260502215531 19 238 0.0 0.0 0.00 0.00 0.00 33 1017.3
20260502215035 20 86 0.0 0.0 0.00 0.00 0.00 33 1017.2
20260502214540 19 30 0.0 0.0 0.00 0.00 0.00 34 1017.2
20260502214025 19 104 0.0 1.6 0.00 0.00 0.00 33 1017.2
20260502213530 19 55 0.0 6.4 0.00 0.00 0.00 34 1017.3
20260502213055 19 260 0.0 6.4 0.00 0.00 0.00 33 1017.3
20260502212522 19 260 0.0 0.0 0.00 0.00 0.00 33 1017.2
20260502212047 19 201 0.0 0.0 0.00 0.00 0.00 32 1017.3
20260502211532 18 284 0.0 1.6 0.00 0.00 0.00 34 1017.4
20260502211037 19 266 0.0 1.6 0.00 0.00 0.00 33 1017.4
20260502210522 18 15 0.0 0.0 0.00 0.00 0.00 33 1017.4
20260502210026 18 205 0.0 1.6 0.00 0.00 0.00 35 1017.5
20260502205532 19 65 0.0 0.0 0.00 0.00 0.00 32 1017.5
20260502205036 20 105 0.0 0.0 0.00 0.00 0.00 31 1017.6
20260502204521 19 309 0.0 0.0 0.00 0.00 0.00 33 1017.6
20260502204025 19 349 0.0 0.0 0.00 0.00 0.00 33 1017.6
20260502203551 19 21 0.0 1.6 0.00 0.00 0.00 33 1017.7
20260502203034 18 269 0.0 1.6 0.00 0.00 0.00 34 1017.7
20260502202543 19 224 0.0 3.2 0.00 0.00 0.00 33 1017.8
20260502202028 18 247 0.0 3.2 0.00 0.00 0.00 33 1017.9
20260502201533 20 37 0.0 1.6 0.00 0.00 0.00 31 1017.8
20260502201037 20 201 0.0 0.0 0.00 0.00 0.00 33 1018.0
20260502200523 19 223 0.0 0.0 0.00 0.00 0.00 34 1018.0
20260502200028 19 315 0.0 1.6 0.00 0.00 0.00 33 1018.1
20260502195534 19 255 0.0 1.6 0.00 0.00 0.00 34 1018.1
20260502195039 18 244 0.0 1.6 0.00 0.00 0.00 36 1018.1
20260502194524 18 240 0.0 1.6 0.00 0.00 0.00 34 1018.2
20260502194029 18 267 0.0 1.6 0.00 0.00 0.00 37 1018.1
20260502193534 17 242 0.0 1.6 0.00 0.00 0.00 38 1018.2
20260502193024 17 220 0.0 0.0 0.00 0.00 0.00 36 1018.1
20260502192549 17 42 0.0 0.0 0.00 0.00 0.00 39 1018.2
20260502192053 17 69 0.0 0.0 0.00 0.00 0.00 37 1018.2
20260502191557 17 78 0.0 1.6 0.00 0.00 0.00 36 1018.2
20260502191022 17 39 0.0 1.6 0.00 0.00 0.00 36 1018.3
20260502190527 18 76 0.0 0.0 0.00 0.00 0.00 36 1018.3
20260502190032 17 242 0.0 0.0 0.00 0.00 0.00 37 1018.3
20260502185537 17 338 0.0 1.6 0.00 0.00 0.00 36 1018.3
20260502185021 17 238 0.0 1.6 0.00 0.00 0.00 36 1018.4
20260502184526 17 44 0.0 1.6 0.00 0.00 0.00 36 1018.5
20260502184031 17 57 0.0 0.0 0.00 0.00 0.00 39 1018.5
20260502183536 17 204 0.0 0.0 0.00 0.00 0.00 38 1018.5
20260502183025 17 101 0.0 3.2 0.00 0.00 0.00 38 1018.6
20260502182531 17 43 0.0 3.2 0.00 0.00 0.00 36 1018.5
20260502182036 18 222 0.0 1.6 0.00 0.00 0.00 36 1018.5
20260502181542 17 82 0.0 0.0 0.00 0.00 0.00 36 1018.6
20260502181025 17 260 0.0 0.0 0.00 0.00 0.00 39 1018.6
20260502180531 17 52 0.0 1.6 0.00 0.00 0.00 39 1018.7
20260502164037 17 59 0.0 0.0 0.00 0.00 0.00 42 1019.0
20260502163526 16 24 0.0 0.0 0.00 0.00 0.00 41 1019.1
20260502163032 17 228 0.0 1.6 0.00 0.00 0.00 38 1019.1
20260502162536 17 50 0.0 1.6 0.00 0.00 0.00 40 1019.1
20260502162021 16 49 0.0 0.0 0.00 0.00 0.00 41 1019.1
20260502161526 16 11 0.0 4.8 0.00 0.00 0.00 40 1019.1
20260502161051 16 71 0.0 1.6 0.00 0.00 0.00 40 1019.0
20260502160536 16 317 0.0 1.6 0.00 0.00 0.00 41 1019.0
20260502152035 15 42 0.0 0.0 0.00 0.00 0.00 52 1018.9
20260502151525 15 63 0.0 0.0 0.00 0.00 0.00 54 1018.9
20260502151049 14 55 0.0 0.0 0.00 0.00 0.00 58 1018.8
20260502150533 14 22 0.0 0.0 0.00 0.00 0.00 60 1018.9
20260502130537 10 231 0.0 0.0 0.00 0.00 0.00 72 1018.2
20260502123544 8 146 0.0 0.0 0.00 0.00 0.00 78 1017.8
20260502123047 7 236 0.0 0.0 0.00 0.00 0.00 79 1017.9
20260502122532 7 252 0.0 0.0 0.00 0.00 0.00 80 1017.8
20260502122035 7 254 0.0 0.0 0.00 0.00 0.00 81 1017.7
20260502121540 7 253 0.0 0.0 0.00 0.00 0.00 82 1017.7
20260502121025 7 253 0.0 0.0 0.00 0.00 0.00 82 1017.5
20260502120534 6 253 0.0 0.0 0.00 0.00 0.00 83 1017.4
20260502115524 6 253 0.0 0.0 0.00 0.00 0.00 83 1017.3
20260502115027 6 253 0.0 0.0 0.00 0.00 0.00 83 1017.3
20260502114532 6 253 0.0 0.0 0.00 0.00 0.00 82 1017.2
20260502114057 6 253 0.0 0.0 0.00 0.00 0.00 82 1017.2
20260502113600 6 253 0.0 0.0 0.00 0.00 0.00 81 1017.1
20260502113045 6 253 0.0 0.0 0.00 0.00 0.00 81 1017.2
20260502112529 6 253 0.0 0.0 0.00 0.00 0.00 81 1017.1
20260502112054 6 253 0.0 0.0 0.00 0.00 0.00 81 1017.1
20260502111537 6 253 0.0 0.0 0.00 0.00 0.00 80 1017.2
20260502111023 6 253 0.0 0.0 0.00 0.00 0.00 79 1017.2
20260502110528 7 259 0.0 0.0 0.00 0.00 0.00 79 1017.1
20260502110033 7 269 0.0 0.0 0.00 0.00 0.00 78 1017.0
20260502105522 7 270 0.0 0.0 0.00 0.00 0.00 77 1016.9
20260502105025 7 271 0.0 0.0 0.00 0.00 0.00 76 1016.9
20260502104530 7 271 0.0 0.0 0.00 0.00 0.00 76 1016.8
20260502104036 7 271 0.0 0.0 0.00 0.00 0.00 76 1016.8
20260502103522 7 271 0.0 0.0 0.00 0.00 0.00 76 1016.7
20260502103026 7 275 0.0 0.0 0.00 0.00 0.00 76 1016.7
20260502102551 7 343 0.0 0.0 0.00 0.00 0.00 76 1016.6
20260502102035 7 343 0.0 0.0 0.00 0.00 0.00 76 1016.6
20260502101520 7 346 0.0 0.0 0.00 0.00 0.00 77 1016.5
20260502101046 7 224 0.0 0.0 0.00 0.00 0.00 77 1016.5
20260502100530 7 224 0.0 0.0 0.00 0.00 0.00 78 1016.4
20260502091523 6 224 0.0 0.0 0.00 0.00 0.00 82 1016.2
20260502091029 6 224 0.0 0.0 0.00 0.00 0.00 82 1016.2
20260502090534 6 224 0.0 0.0 0.00 0.00 0.00 82 1016.2
20260502071523 8 224 0.0 0.0 0.00 0.00 0.00 78 1016.0
20260502071028 8 224 0.0 0.0 0.00 0.00 0.00 78 1016.0
20260502070553 8 224 0.0 0.0 0.00 0.00 0.00 79 1016.0
20260502070057 8 224 0.0 0.0 0.00 0.00 0.00 78 1016.0
20260502065522 8 224 0.0 0.0 0.00 0.00 0.00 77 1016.0
20260502065026 8 224 0.0 0.0 0.00 0.00 0.00 77 1016.0
20260502064531 8 224 0.0 0.0 0.00 0.00 0.00 77 1016.0
20260502064056 8 224 0.0 0.0 0.00 0.00 0.00 76 1016.0
20260502063601 8 224 0.0 0.0 0.00 0.00 0.00 75 1016.1
20260502063029 8 224 0.0 0.0 0.00 0.00 0.00 75 1016.1
20260502062533 8 224 0.0 0.0 0.00 0.00 0.00 75 1016.1
20260502062037 8 224 0.0 0.0 0.00 0.00 0.00 74 1016.2
20260502061522 8 224 0.0 0.0 0.00 0.00 0.00 74 1016.2
20260502061028 8 224 0.0 0.0 0.00 0.00 0.00 74 1016.2
20260502060533 8 224 0.0 0.0 0.00 0.00 0.00 74 1016.3
20260502060038 8 224 0.0 0.0 0.00 0.00 0.00 73 1016.3
20260502055523 8 224 0.0 0.0 0.00 0.00 0.00 72 1016.3
20260502055028 9 224 0.0 0.0 0.00 0.00 0.00 71 1016.3
20260502054553 9 224 0.0 0.0 0.00 0.00 0.00 71 1016.4
20260502054036 9 224 0.0 0.0 0.00 0.00 0.00 70 1016.4
20260502053521 9 224 0.0 0.0 0.00 0.00 0.00 70 1016.3
20260502053031 9 224 0.0 1.6 0.00 0.00 0.00 71 1016.3
20260502052536 9 223 0.0 1.6 0.00 0.00 0.00 71 1016.3
20260502052022 9 299 0.0 0.0 0.00 0.00 0.00 72 1016.0
20260502051527 9 299 0.0 0.0 0.00 0.00 0.00 72 1016.0
20260502051033 9 299 0.0 0.0 0.00 0.00 0.00 72 1015.9
20260502050537 9 299 0.0 0.0 0.00 0.00 0.00 73 1015.9
20260502050023 9 299 0.0 0.0 0.00 0.00 0.00 74 1016.0
20260502045529 9 299 0.0 0.0 0.00 0.00 0.00 75 1016.0
20260502045033 9 299 0.0 0.0 0.00 0.00 0.00 75 1016.0
20260502044538 9 299 0.0 0.0 0.00 0.00 0.00 75 1016.0
20260502044027 10 299 0.0 0.0 0.00 0.00 0.00 74 1016.0
20260502043532 10 299 0.0 0.0 0.00 0.00 0.00 73 1016.0
20260502043037 10 299 0.0 0.0 0.00 0.00 0.00 74 1015.9
20260502042601 10 299 0.0 0.0 0.00 0.00 0.00 72 1015.9
20260502042024 10 299 0.0 0.0 0.00 0.00 0.00 72 1015.9
20260502041528 10 299 0.0 0.0 0.00 0.00 0.00 71 1016.0
20260502041033 10 299 0.0 0.0 0.00 0.00 0.00 71 1016.0
20260502040537 10 299 0.0 0.0 0.00 0.00 0.00 70 1016.1
20260502040024 10 299 0.0 0.0 0.00 0.00 0.00 69 1016.2
20260502035529 10 299 0.0 0.0 0.00 0.00 0.00 68 1016.2
20260502035034 10 299 0.0 0.0 0.00 0.00 0.00 67 1016.3
20260502034600 10 299 0.0 0.0 0.00 0.00 0.00 66 1016.3
20260502034028 10 299 0.0 0.0 0.00 0.00 0.00 66 1016.3
20260502033533 10 299 0.0 0.0 0.00 0.00 0.00 65 1016.3
20260502033038 10 299 0.0 0.0 0.00 0.00 0.00 64 1016.3
20260502032523 10 299 0.0 0.0 0.00 0.00 0.00 64 1016.3
20260502032028 11 299 0.0 0.0 0.00 0.00 0.00 64 1016.3
20260502031554 11 299 0.0 0.0 0.00 0.00 0.00 63 1016.3
20260502031038 11 299 0.0 0.0 0.00 0.00 0.00 63 1016.2
20260502030523 11 299 0.0 0.0 0.00 0.00 0.00 63 1016.2
20260502030029 11 299 0.0 0.0 0.00 0.00 0.00 63 1016.2
20260502025534 11 299 0.0 0.0 0.00 0.00 0.00 63 1016.2
20260502025059 11 299 0.0 0.0 0.00 0.00 0.00 63 1016.2
20260502024524 11 299 0.0 0.0 0.00 0.00 0.00 62 1016.1
20260502024033 11 299 0.0 0.0 0.00 0.00 0.00 61 1016.1
20260502023539 11 299 0.0 0.0 0.00 0.00 0.00 60 1016.0
20260502023045 12 299 0.0 0.0 0.00 0.00 0.00 60 1016.0
20260502022529 12 299 0.0 0.0 0.00 0.00 0.00 60 1015.9
20260502022034 12 299 0.0 0.0 0.00 0.00 0.00 59 1015.9
20260502021539 12 299 0.0 0.0 0.00 0.00 0.00 59 1015.8
20260502021024 12 299 0.0 0.0 0.00 0.00 0.00 56 1015.8
20260502020528 12 299 0.0 0.0 0.00 0.00 0.00 57 1015.6
20260502020034 12 299 0.0 0.0 0.00 0.00 0.00 56 1015.6
20260502015539 13 299 0.0 0.0 0.00 0.00 0.00 56 1015.6
20260502015024 13 299 0.0 0.0 0.00 0.00 0.00 54 1015.5
20260502014533 13 299 0.0 0.0 0.00 0.00 0.00 53 1015.5
20260502014038 13 299 0.0 0.0 0.00 0.00 0.00 51 1015.5
20260502013523 13 299 0.0 0.0 0.00 0.00 0.00 50 1015.3
20260502013030 14 299 0.0 0.0 0.00 0.00 0.00 50 1015.3
20260502012555 14 299 0.0 0.0 0.00 0.00 0.00 47 1015.2
20260502012038 14 299 0.0 0.0 0.00 0.00 0.00 47 1015.2
20260502011524 15 299 0.0 0.0 0.00 0.00 0.00 45 1015.1
20260502011031 15 299 0.0 0.0 0.00 0.00 0.00 42 1014.9
20260502010536 15 299 0.0 0.0 0.00 0.00 0.00 42 1014.8
20260502010021 16 299 0.0 0.0 0.00 0.00 0.00 41 1014.7
20260502005526 16 299 0.0 0.0 0.00 0.00 0.00 40 1014.6
20260502005034 16 299 0.0 0.0 0.00 0.00 0.00 39 1014.5
20260502004539 16 299 0.0 0.0 0.00 0.00 0.00 39 1014.5
20260502004045 17 300 0.0 0.0 0.00 0.00 0.00 37 1014.5
20260502003529 17 299 0.0 0.0 0.00 0.00 0.00 37 1014.5
20260502003034 17 302 0.0 0.0 0.00 0.00 0.00 36 1014.4
20260502002540 17 305 0.0 0.0 0.00 0.00 0.00 35 1014.4
20260502002024 17 279 0.0 0.0 0.00 0.00 0.00 35 1014.3
20260502001530 17 279 0.0 0.0 0.00 0.00 0.00 34 1014.3
20260502001035 17 276 0.0 0.0 0.00 0.00 0.00 33 1014.4
20260502000521 17 57 0.0 0.0 0.00 0.00 0.00 32 1014.3
20260502000046 18 263 0.0 1.6 0.00 0.00 0.00 33 1014.3
20260501235530 18 39 0.0 1.6 0.00 0.00 0.00 31 1014.3
20260501235038 18 189 0.0 0.0 0.00 0.00 0.00 31 1014.4
20260501234523 18 19 0.0 0.0 0.00 0.00 0.00 32 1014.4
20260501234028 18 63 0.0 0.0 0.00 0.00 0.00 33 1014.3
20260501233552 18 5 0.0 0.0 0.00 0.00 0.00 32 1014.3
20260501233057 18 35 0.0 1.6 0.00 0.00 0.00 32 1014.3
20260501232522 18 52 0.0 1.6 0.00 0.00 0.00 31 1014.2
20260501232026 19 47 0.0 0.0 0.00 0.00 0.00 30 1014.2
20260501231531 19 283 0.0 0.0 0.00 0.00 0.00 30 1014.3
20260501231038 19 42 0.0 0.0 0.00 0.00 0.00 30 1014.2
20260501230523 19 42 0.0 1.6 0.00 0.00 0.00 30 1014.3
20260501230028 19 40 0.0 1.6 0.00 0.00 0.00 29 1014.2
20260501225533 19 32 0.0 0.0 0.00 0.00 0.00 30 1014.3
20260501225021 19 290 0.0 0.0 0.00 0.00 0.00 29 1014.1
20260501224526 19 22 0.0 0.0 0.00 0.00 0.00 30 1014.1
20260501224031 19 250 0.0 0.0 0.00 0.00 0.00 29 1014.1
20260501223535 19 325 0.0 0.0 0.00 0.00 0.00 31 1014.1
20260501223022 19 251 0.0 0.0 0.00 0.00 0.00 29 1014.2
20260501222528 20 259 0.0 0.0 0.00 0.00 0.00 29 1014.3
20260501222032 19 39 0.0 0.0 0.00 0.00 0.00 29 1014.5
20260501221537 19 70 0.0 0.0 0.00 0.00 0.00 27 1014.4
20260501221023 19 5 0.0 0.0 0.00 0.00 0.00 29 1014.4